"2009-08-31 00:00:00",1198369,1.216,302.2,2.403,0.059,16.82,106.175,15.08,16.11,72.33,0,110.5,13.32,15.89,264.2
"2009-08-31 00:00:30",1198370,1.246,304.2,1.281,0.072,16.88,106.1745,15.08,16.11,72.29,0,110.5,13.32,15.88,266.2
"2009-08-31 00:01:00",1198371,1.4,306.2,2.609,0.094,16.71,106.1755,15.08,16.12,72.27,0,110.5,13.32,15.89,268.2
"2009-08-31 00:01:30",1198372,1.348,307.5,1.69,0.129,16.74,106.1789,15.09,16.12,72.21,0,110.5,13.32,15.90,269.5
"2009-08-31 00:02:00",1198373,1.246,308.7,1.626,0.055,16.82,106.1792,15.09,16.11,72.2,0,110.5,13.32,15.90,270.7
"2009-08-31 00:02:30",1198374,1.27,307.5,2.008,0.065,16.84,106.183,15.1,16.11,72.2,0,110.5,13.32,15.91,269.5
"2009-08-31 00:03:00",1198375,0.932,303.4,2.737,0.088,16.66,106.1804,15.09,16.11,72.2,0,110.5,13.32,15.90,265.4
"2009-08-31 00:03:30",1198376,0.632,297.7,3.332,0.105,16.75,106.1821,15.1,16.11,72.18,0,110.5,13.32,15.90,259.7
"2009-08-31 00:04:00",1198377,0.411,284.5,6.626,0.049,16.79,106.1847,15.11,16.13,72.16,0,110.5,13.33,15.91,246.5
"2009-08-31 00:04:30",1198378,0.479,252.5,9.86,0.037,16.83,106.1844,15.11,16.12,72.14,0,110.5,13.33,15.91,214.5
"2009-08-31 00:05:00",1198379,0.451,242.7,2.247,0.035,16.9,106.1824,15.1,16.13,72.12,0,110.5,13.33,15.90,204.7
"2009-08-31 00:05:30",1198380,0.695,235.4,6.9,0.191,16.75,106.1886,15.12,16.13,72.1,0,110.5,13.33,15.92,197.4
"2009-08-31 00:06:00",1198381,1.054,224.5,4.023,0.05,16.66,106.1868,15.11,16.12,72.11,0,110.5,13.33,15.92,186.5
"2009-08-31 00:06:30",1198382,1.224,217.3,2.169,0.088,16.52,106.1881,15.11,16.13,72.14,0,110.5,13.33,15.92,179.3
"2009-08-31 00:07:00",1198383,1.267,222.8,5.562,0.072,16.56,106.1898,15.12,16.13,72.15,0,110.5,13.33,15.92,184.8
"2009-08-31 00:07:30",1198384,1.347,225.7,1.317,0.085,16.55,106.1917,15.12,16.13,72.16,0,110.5,13.33,15.93,187.7
"2009-08-31 00:08:00",1198385,1.313,228.8,2.24,0.04,16.61,106.1893,15.12,16.12,72.21,0,110.5,13.33,15.92,190.8
"2009-08-31 00:08:30",1198386,1.104,222.1,2.635,0.067,16.58,106.1893,15.12,16.13,72.25,0,110.5,13.33,15.92,184.1
"2009-08-31 00:09:00",1198387,1.057,219.6,2.818,0.066,16.6,106.1904,15.12,16.12,72.29,0,110.5,13.33,15.93,181.6
"2009-08-31 00:09:30",1198388,0.82,210.5,2.424,0.05,16.77,106.1932,15.13,16.11,72.28,0,110.5,13.33,15.93,172.5
"2009-08-31 00:10:00",1198389,0.728,203.9,2.084,0.042,16.85,106.1959,15.13,16.11,72.29,0,110.5,13.33,15.94,165.9
"2009-08-31 00:10:30",1198390,0.733,200.9,2.782,0.052,16.81,106.1964,15.14,16.11,72.3,0,110.5,13.33,15.94,162.9
"2009-08-31 00:11:00",1198391,0.784,198.4,4.982,0.08,16.73,106.1961,15.14,16.12,72.28,0,110.5,13.33,15.94,160.4
"2009-08-31 00:11:30",1198392,0.831,194.8,1.754,0.046,16.64,106.1998,15.14,16.13,72.29,0,110.5,13.33,15.95,156.8
"2009-08-31 00:12:00",1198393,0.735,191.6,3.798,0.036,16.84,106.2028,15.15,16.11,72.33,0,110.5,13.33,15.96,153.6
"2009-08-31 00:12:30",1198394,0.741,186.4,3.066,0.064,16.84,106.1991,15.14,16.11,72.32,0,110.5,13.33,15.95,148.4
"2009-08-31 00:13:00",1198395,0.793,185.7,6.372,0.066,16.73,106.2002,15.15,16.11,72.31,0,110.5,13.33,15.95,147.7
"2009-08-31 00:13:30",1198396,0.673,180.8,2.3,0.11,16.75,106.1988,15.14,16.12,72.31,0,110.5,13.33,15.95,142.8
"2009-08-31 00:14:00",1198397,0.795,175.3,7.711,0.069,16.75,106.1986,15.14,16.12,72.31,0,110.5,13.33,15.95,137.3
"2009-08-31 00:14:30",1198398,1.04,177.1,1.905,0.046,16.48,106.1963,15.14,16.12,72.3,0,110.5,13.34,15.94,139.1
"2009-08-31 00:15:00",1198399,1.208,172.4,1.686,0.06,16.7,106.1949,15.13,16.11,72.34,0,110.5,13.33,15.94,134.4
"2009-08-31 00:15:30",1198400,1.176,173.7,2.131,0.057,16.64,106.1949,15.13,16.13,72.36,0,110.5,13.33,15.94,135.7
"2009-08-31 00:16:00",1198401,1.14,169.8,4.118,0.068,16.64,106.1901,15.12,16.12,72.4,0,110.5,13.33,15.92,131.8
"2009-08-31 00:16:30",1198402,1.069,175.7,3.235,0.048,16.53,106.1898,15.12,16.15,72.41,0,110.5,13.33,15.92,137.7
"2009-08-31 00:17:00",1198403,0.954,178.7,3.495,0.051,16.58,106.1896,15.12,16.14,72.43,0,110.5,13.33,15.92,140.7
"2009-08-31 00:17:30",1198404,1.034,181.3,4.317,0.056,16.58,106.1887,15.12,16.15,72.47,0,110.5,13.33,15.92,143.3
"2009-08-31 00:18:00",1198405,1.062,189,2.139,0.077,16.64,106.1887,15.12,16.14,72.5,0,110.5,13.33,15.92,151.0
"2009-08-31 00:18:30",1198406,0.951,182.8,2.211,0.05,16.91,106.1887,15.12,16.14,72.53,0,110.5,13.33,15.92,144.8
"2009-08-31 00:19:00",1198407,0.818,187.6,3.39,0.056,17.04,106.1887,15.12,16.14,72.55,0,110.5,13.33,15.92,149.6
"2009-08-31 00:19:30",1198408,0.51,190.2,3.512,0.107,17.03,106.1887,15.12,16.13,72.58,0,110.5,13.33,15.92,152.2
"2009-08-31 00:20:00",1198409,0.75,199.8,4.675,0.837,17.43,106.1887,15.12,16.28,72.75,0,110.5,13.29,15.92,161.8
"2009-08-31 00:20:30",1198410,1.321,191.8,11.98,1.302,17.58,106.1887,15.12,16.14,72.59,0,110.5,13.29,15.92,153.8
"2009-08-31 00:21:00",1198411,0.406,171.5,2.498,0.065,16.06,106.1887,15.12,16.13,72.61,0,110.5,13.33,15.92,133.5
"2009-08-31 00:21:30",1198412,0.508,161,11.38,0.09,15.86,106.1887,15.12,16.15,72.64,0,110.5,13.33,15.92,123.0
"2009-08-31 00:22:00",1198413,0.729,134.4,4.428,0.039,15.87,106.1887,15.12,16.14,72.66,0,110.5,13.33,15.92,96.4
"2009-08-31 00:22:30",1198414,0.798,125,3.598,0.078,15.85,106.1887,15.12,16.13,72.64,0,110.5,13.34,15.92,87.0
"2009-08-31 00:23:00",1198415,1.014,124.3,3.34,0.068,15.98,106.1887,15.12,16.15,72.63,0,110.5,13.34,15.92,86.3
"2009-08-31 00:23:30",1198416,1.289,124.7,2.836,0.083,16.19,106.1887,15.12,16.14,72.64,0,110.5,13.34,15.92,86.7
"2009-08-31 00:24:00",1198417,1.556,124.5,1.415,0.065,16.12,106.1887,15.12,16.14,72.64,0,110.5,13.34,15.92,86.5
"2009-08-31 00:24:30",1198418,1.866,121.5,1.842,0.15,16.19,106.1887,15.12,16.14,72.68,0,110.5,13.34,15.92,83.5
"2009-08-31 00:25:00",1198419,2.024,123.3,1.416,0.083,16.32,106.1876,15.11,16.13,72.68,0,110.5,13.34,15.92,85.3
"2009-08-31 00:25:30",1198420,2.226,124.6,1.277,0.036,16.58,106.1814,15.1,16.13,72.7,0,110.5,13.34,15.90,86.6
"2009-08-31 00:26:00",1198421,2.211,120.9,1.197,0.028,16.31,106.1735,15.08,16.13,72.71,0,110.5,13.34,15.88,82.9
"2009-08-31 00:26:30",1198422,2.146,116.8,2.704,0.07,16.35,106.1681,15.06,16.14,72.71,0,110.5,13.34,15.87,78.8
"2009-08-31 00:27:00",1198423,1.981,116.8,1.546,0.038,16.45,106.158,15.04,16.11,72.66,0,110.5,13.34,15.84,78.8
"2009-08-31 00:27:30",1198424,2.108,115.2,1.402,0.108,16.45,106.1549,15.03,16.11,72.67,0,110.5,13.34,15.83,77.2
"2009-08-31 00:28:00",1198425,2.334,114.3,2.196,0.109,16.41,106.1549,15.03,16.1,72.68,0,110.5,13.34,15.83,76.3
"2009-08-31 00:28:30",1198426,2.382,113.4,1.881,0.081,16.43,106.1549,15.03,16.1,72.68,0,110.4,13.34,15.83,75.4
"2009-08-31 00:29:00",1198427,2.245,119.8,3.022,0.055,16.48,106.1549,15.03,16.08,72.72,0,110.5,13.34,15.83,81.8
"2009-08-31 00:29:30",1198428,2.499,124.7,1.299,0.095,16.5,106.1549,15.03,16.08,72.71,0,110.5,13.34,15.83,86.7
"2009-08-31 00:30:00",1198429,2.603,120.2,4.922,0.269,16.4,106.154,15.03,16.09,72.83,0,110.5,13.34,15.83,82.2
"2009-08-31 00:30:30",1198430,3.199,117,3.379,0.14,16.44,106.1498,15.02,16.08,73.08,0,110.5,13.35,15.82,79.0
"2009-08-31 00:31:00",1198431,3.095,122.8,4.596,0.133,16.49,106.1459,15.01,16.07,73.32,0,110.5,13.34,15.81,84.8
"2009-08-31 00:31:30",1198432,3.278,130.1,1.319,0.347,16.4,106.1346,14.98,16.06,73.25,0,110.5,13.35,15.78,92.1
"2009-08-31 00:32:00",1198433,3.158,128.9,1.625,0.175,16.37,106.1219,14.95,16.07,73.57,0,110.4,13.35,15.75,90.9
"2009-08-31 00:32:30",1198434,2.764,137.2,5.36,0.153,16.4,106.1211,14.94,16.06,73.79,0,110.4,13.34,15.75,99.2
"2009-08-31 00:33:00",1198435,2.473,149.5,2.941,0.062,16.57,106.1211,14.94,16.05,73.74,0,110.4,13.34,15.75,111.5
"2009-08-31 00:33:30",1198436,2.738,157.6,2.41,0.175,16.91,106.1211,14.94,16.04,73.44,0,110.4,13.33,15.75,119.6
"2009-08-31 00:34:00",1198437,3.002,163,2.833,0.095,16.86,106.1211,14.94,16.02,73.23,0,110.4,13.33,15.75,125.0
"2009-08-31 00:34:30",1198438,2.758,168.5,1.158,0.111,16.91,106.1208,14.94,16,73.11,0,110.4,13.34,15.75,130.5
"2009-08-31 00:35:00",1198439,2.47,170.6,1.67,0.146,16.74,106.1163,14.93,16,73.11,0,110.4,13.33,15.73,132.6
"2009-08-31 00:35:30",1198440,2.188,175.2,2.229,0.073,16.71,106.1126,14.92,15.99,73.2,0,110.4,13.33,15.73,137.2
"2009-08-31 00:36:00",1198441,2.11,171.3,3.865,0.108,16.7,106.1109,14.92,15.98,73.3,0,110.4,13.33,15.72,133.3
"2009-08-31 00:36:30",1198442,1.513,171.9,3.698,0.244,16.71,106.1112,14.92,15.98,73.37,0,110.4,13.34,15.72,133.9
"2009-08-31 00:37:00",1198443,0.994,165.9,4.817,0.134,16.58,106.1104,14.92,15.98,73.43,0,110.4,13.34,15.72,127.9
"2009-08-31 00:37:30",1198444,0.497,146.1,8.97,0.192,16.64,106.1106,14.92,15.97,73.52,0,110.4,13.34,15.72,108.1
"2009-08-31 00:38:00",1198445,0.63,116.6,12.84,0.068,16.61,106.1109,14.92,15.97,73.61,0,110.4,13.35,15.72,78.6
"2009-08-31 00:38:30",1198446,0.682,101.8,4.099,0.067,16.7,106.1109,14.92,15.93,73.7,0,110.4,13.35,15.72,63.8
"2009-08-31 00:39:00",1198447,0.658,85.5,8.74,0.161,16.6,106.1115,14.92,15.94,73.81,0,110.4,13.35,15.72,47.5
"2009-08-31 00:39:30",1198448,0.743,91.3,6.608,0.088,16.6,106.1109,14.92,15.94,73.87,0,110.4,13.35,15.72,53.3
"2009-08-31 00:40:00",1198449,1.343,75.13,3.885,0.275,16.59,106.1104,14.92,15.95,73.88,0,110.4,13.35,15.72,37.1
"2009-08-31 00:40:30",1198450,1.691,82.9,3.164,0.135,16.54,106.1104,14.92,15.93,74.04,0,110.4,13.35,15.72,44.9
"2009-08-31 00:41:00",1198451,1.903,90.7,4.108,0.162,16.54,106.1078,14.91,15.92,74.3,0,110.4,13.35,15.71,52.7
"2009-08-31 00:41:30",1198452,2.667,98.6,2.13,0.154,16.49,106.0999,14.89,15.91,74.62,0,110.4,13.35,15.69,60.6
"2009-08-31 00:42:00",1198453,3.095,101.6,2.146,0.105,16.38,106.0999,14.89,15.91,74.98,0,110.4,13.35,15.69,63.6
"2009-08-31 00:42:30",1198454,3.471,96.3,3.504,0.386,16.31,106.0994,14.89,15.89,75.15,0,110.4,13.35,15.69,58.3
"2009-08-31 00:43:00",1198455,3.344,88.5,2.736,0.267,16.16,106.0954,14.88,15.88,75.66,0,110.4,13.35,15.68,50.5
"2009-08-31 00:43:30",1198456,3.516,89.8,2.444,0.167,15.99,106.0901,14.86,15.9,76.36,0,110.4,13.35,15.67,51.8
"2009-08-31 00:44:00",1198457,3.504,89.9,2.171,0.137,16.03,106.0872,14.86,15.95,76.87,0,110.4,13.35,15.66,51.9
"2009-08-31 00:44:30",1198458,5.429,104.1,7.738,1.298,19.61,106.0872,14.86,16.2,77.39,0,110.4,13.31,15.66,66.1
"2009-08-31 00:45:00",1198459,5.123,106.1,7.514,1.28,18.81,106.0872,14.86,16.12,77.47,0,110.4,13.31,15.66,68.1
"2009-08-31 00:45:30",1198460,4.448,113.7,6.908,1.35,18.03,106.0808,14.84,16.11,77.57,0,110.4,13.31,15.64,75.7
"2009-08-31 00:46:00",1198461,2.575,111,4.95,0.194,14.67,106.0625,14.79,16.02,77.43,0,110.4,13.34,15.60,73.0
"2009-08-31 00:46:30",1198462,2.487,117.6,4.598,0.086,13.65,106.054,14.77,15.88,77.12,0,110.4,13.34,15.57,79.6
"2009-08-31 00:47:00",1198463,2.291,130.7,5.834,0.159,13.59,106.054,14.77,15.86,76.81,0,110.4,13.34,15.57,92.7
"2009-08-31 00:47:30",1198464,2.111,136,3.04,0.097,13.76,106.0526,14.77,15.85,76.47,0,110.4,13.34,15.57,98.0
"2009-08-31 00:48:00",1198465,2.077,141.9,2.934,0.096,14.1,106.0453,14.75,15.83,76.24,0,110.4,13.35,15.55,103.9
"2009-08-31 00:48:30",1198466,1.972,146.1,2.432,0.052,14.42,106.0247,14.7,15.82,76.15,0,110.4,13.35,15.50,108.1
"2009-08-31 00:49:00",1198467,2.008,145.2,4.291,0.085,14.73,106.0211,14.69,15.79,76.06,0,110.4,13.34,15.49,107.2
"2009-08-31 00:49:30",1198468,2.131,151.5,3.1,0.101,15.11,106.0211,14.69,15.78,75.96,0,110.4,13.34,15.49,113.5
"2009-08-31 00:50:00",1198469,2.262,145.7,1.624,0.067,15.43,106.0235,14.69,15.77,75.78,0,110.4,13.34,15.50,107.7
"2009-08-31 00:50:30",1198470,2.252,143.9,2.188,0.095,15.46,106.0247,14.7,15.75,75.69,0,110.4,13.34,15.50,105.9
"2009-08-31 00:51:00",1198471,2.3,141.8,1.577,0.067,15.67,106.0156,14.67,15.75,75.65,0,110.4,13.34,15.48,103.8
"2009-08-31 00:51:30",1198472,2.493,138.6,1.075,0.095,15.76,106.0161,14.67,15.73,75.62,0,110.4,13.34,15.48,100.6
"2009-08-31 00:52:00",1198473,2.537,134.6,2.548,0.09,15.87,105.9965,14.62,15.73,75.63,0,110.4,13.34,15.43,96.6
"2009-08-31 00:52:30",1198474,2.585,131.7,1.095,0.046,15.97,105.995,14.62,15.72,75.7,0,110.4,13.34,15.42,93.7
"2009-08-31 00:53:00",1198475,2.682,130.3,1.329,0.081,15.98,105.9936,14.62,15.72,75.75,0,110.4,13.34,15.42,92.3
"2009-08-31 00:53:30",1198476,2.94,127.4,2.536,0.065,16.06,105.9948,14.62,15.72,75.86,0,110.4,13.34,15.42,89.4
"2009-08-31 00:54:00",1198477,3.025,121.8,1.721,0.105,16.16,105.9974,14.63,15.72,76,0,110.4,13.35,15.43,83.8
"2009-08-31 00:54:30",1198478,3.029,118.4,3.203,0.121,16.16,105.9968,14.62,15.7,76.14,0,110.4,13.35,15.43,80.4
"2009-08-31 00:55:00",1198479,3.233,114.1,1.396,0.087,16.16,105.9962,14.62,15.7,76.2,0,110.4,13.35,15.43,76.1
"2009-08-31 00:55:30",1198480,3.11,114.4,1.082,0.068,16.21,105.9986,14.63,15.69,76.2,0,110.4,13.35,15.43,76.4
"2009-08-31 00:56:00",1198481,3.118,115.9,2.173,0.061,16.27,105.9986,14.63,15.68,76.23,0,110.4,13.35,15.43,77.9
"2009-08-31 00:56:30",1198482,3.05,119.3,2.052,0.122,16.38,106.0008,14.63,15.69,76.25,0,110.4,13.35,15.44,81.3
"2009-08-31 00:57:00",1198483,2.948,120,3.815,0.143,16.4,105.996,14.62,15.66,76.29,0,110.4,13.35,15.43,82.0
"2009-08-31 00:57:30",1198484,2.768,122,5.034,0.104,16.34,105.9874,14.6,15.67,76.33,0,110.4,13.35,15.40,84.0
"2009-08-31 00:58:00",1198485,2.576,124,3.232,0.131,16.4,105.9852,14.59,15.66,76.33,0,110.4,13.35,15.40,86.0
"2009-08-31 00:58:30",1198486,2.64,127.3,2.955,0.133,16.47,105.9807,14.58,15.65,76.34,0,110.4,13.35,15.39,89.3
"2009-08-31 00:59:00",1198487,2.354,126.7,3.337,0.098,16.41,105.979,14.58,15.64,76.32,0,110.4,13.35,15.38,88.7
"2009-08-31 00:59:30",1198488,2.259,122.7,2.414,0.084,16.4,105.9773,14.57,15.65,76.33,0,110.4,13.35,15.38,84.7
"2009-08-31 01:00:00",1198489,2.076,123.2,2.689,0.193,16.47,105.9768,14.57,15.64,76.34,0,110.4,13.35,15.38,85.2
"2009-08-31 01:00:30",1198490,1.833,127.3,3.494,0.156,16.45,105.9737,14.57,15.62,76.3,0,110.4,13.35,15.37,89.3
"2009-08-31 01:01:00",1198491,1.805,117.2,2.549,0.14,16.51,105.9758,14.57,15.62,76.23,0,110.4,13.35,15.37,79.2
"2009-08-31 01:01:30",1198492,1.351,128.6,3.673,0.122,16.57,105.9758,14.57,15.62,76.14,0,110.4,13.35,15.37,90.6
"2009-08-31 01:02:00",1198493,1.618,124.8,3.235,0.132,16.58,105.9768,14.57,15.61,76.01,0,110.4,13.35,15.38,86.8
"2009-08-31 01:02:30",1198494,1.595,123.9,4.237,0.096,16.53,105.9762,14.57,15.61,75.9,0,110.4,13.35,15.37,85.9
"2009-08-31 01:03:00",1198495,1.554,112.6,5.267,0.123,16.54,105.9764,14.57,15.61,75.89,0,110.4,13.36,15.38,74.6
"2009-08-31 01:03:30",1198496,1.402,97.5,2.127,0.107,16.57,105.98,14.58,15.63,75.88,0,110.4,13.35,15.38,59.5
"2009-08-31 01:04:00",1198497,1.567,93.1,3.448,0.07,16.55,105.9809,14.58,15.61,75.87,0,110.4,13.36,15.39,55.1
"2009-08-31 01:04:30",1198498,1.912,85.6,2.977,0.15,16.57,105.9794,14.58,15.62,75.84,0,110.4,13.36,15.38,47.6
"2009-08-31 01:05:00",1198499,1.812,80.3,3.215,0.094,16.57,105.9803,14.58,15.61,75.86,0,110.4,13.36,15.39,42.3
"2009-08-31 01:05:30",1198500,1.777,87.9,1.902,0.122,16.55,105.9851,14.59,15.63,75.85,0,110.4,13.35,15.40,49.9
"2009-08-31 01:06:00",1198501,1.965,82,1.789,0.086,16.66,105.983,14.59,15.62,75.83,0,110.4,13.35,15.39,44.0
"2009-08-31 01:06:30",1198502,2.05,82.5,0.999,0.034,16.71,105.9873,14.6,15.62,75.78,0,110.4,13.35,15.40,44.5
"2009-08-31 01:07:00",1198503,2.071,84.4,0.958,0.083,16.7,105.9905,14.61,15.63,75.71,0,110.4,13.35,15.41,46.4
"2009-08-31 01:07:30",1198504,2.004,84.6,1.733,0.051,16.74,105.9911,14.61,15.62,75.64,0,110.4,13.35,15.41,46.6
"2009-08-31 01:08:00",1198505,1.955,85.3,1.571,0.086,16.67,105.9978,14.63,15.63,75.58,0,110.4,13.35,15.43,47.3
"2009-08-31 01:08:30",1198506,1.767,89.1,1.375,0.116,16.55,105.9975,14.63,15.64,75.54,0,110.4,13.35,15.43,51.1
"2009-08-31 01:09:00",1198507,1.452,93,1.718,0.157,16.64,105.9992,14.63,15.63,75.48,0,110.4,13.35,15.43,55.0
"2009-08-31 01:09:30",1198508,1.712,90.8,1.761,0.069,16.55,106.005,14.65,15.63,75.41,0,110.4,13.35,15.45,52.8
"2009-08-31 01:10:00",1198509,1.571,100,9.92,0.138,16.66,106.01,14.66,15.64,75.36,0,110.4,13.35,15.46,62.0
"2009-08-31 01:10:30",1198510,1.153,111.2,7.922,0.082,16.68,106.0148,14.67,15.65,75.25,0,110.4,13.35,15.47,73.2
"2009-08-31 01:11:00",1198511,1.274,117.6,7.23,0.125,16.69,106.0173,14.68,15.65,75.13,0,110.4,13.35,15.48,79.6
"2009-08-31 01:11:30",1198512,1.464,123,5.343,0.185,16.74,106.0213,14.69,15.65,75.01,0,110.4,13.36,15.49,85.0
"2009-08-31 01:12:00",1198513,1.368,127.8,3.092,0.156,16.73,106.0205,14.69,15.66,74.86,0,110.4,13.36,15.49,89.8
"2009-08-31 01:12:30",1198514,1.586,133.1,3.356,0.127,16.75,106.0213,14.69,15.66,74.78,0,110.4,13.36,15.49,95.1
"2009-08-31 01:13:00",1198515,1.596,128.3,6.61,0.093,16.79,106.021,14.69,15.66,74.72,0,110.4,13.36,15.49,90.3
"2009-08-31 01:13:30",1198516,1.86,131.4,3.743,0.167,16.82,106.0213,14.69,15.67,74.68,0,110.4,13.36,15.49,93.4
"2009-08-31 01:14:00",1198517,1.662,139.4,4.044,0.139,16.86,106.0216,14.69,15.68,74.56,0,110.4,13.36,15.49,101.4
"2009-08-31 01:14:30",1198518,1.59,139.6,5.484,0.142,16.86,106.0216,14.69,15.67,74.39,0,110.4,13.36,15.49,101.6
"2009-08-31 01:15:00",1198519,1.305,136.2,3.399,0.111,16.7,106.0216,14.69,15.68,74.31,0,110.4,13.36,15.49,98.2
"2009-08-31 01:15:30",1198520,0.963,130,5.416,0.067,16.79,106.0216,14.69,15.69,74.3,0,110.4,13.36,15.49,92.0
"2009-08-31 01:16:00",1198521,0.873,139.9,7.683,0.11,16.83,106.0216,14.69,15.7,74.28,0,110.4,13.36,15.49,101.9
"2009-08-31 01:16:30",1198522,0.812,136.8,2.88,0.06,16.9,106.027,14.7,15.7,74.22,0,110.4,13.36,15.51,98.8
"2009-08-31 01:17:00",1198523,0.617,150.1,6.052,0.109,16.88,106.0388,14.73,15.71,74.12,0,110.4,13.36,15.54,112.1
"2009-08-31 01:17:30",1198524,0.6,133.6,6.193,0.061,16.86,106.0459,14.75,15.71,74.08,0,110.4,13.36,15.55,95.6
"2009-08-31 01:18:00",1198525,0.671,124.5,5.519,0.056,16.74,106.0481,14.76,15.72,73.98,0,110.4,13.36,15.56,86.5
"2009-08-31 01:18:30",1198526,0.782,125.4,5.755,0.084,16.71,106.051,14.76,15.72,73.89,0,110.4,13.36,15.57,87.4
"2009-08-31 01:19:00",1198527,0.758,129.3,2.578,0.033,16.66,106.0552,14.77,15.72,73.89,0,110.4,13.36,15.58,91.3
"2009-08-31 01:19:30",1198528,0.791,136.1,6.319,0.083,16.84,106.0555,14.77,15.74,73.88,0,110.4,13.36,15.58,98.1
"2009-08-31 01:20:00",1198529,0.825,127.2,2.963,0.049,16.61,106.0555,14.77,15.75,73.79,0,110.4,13.36,15.58,89.2
"2009-08-31 01:20:30",1198530,0.74,133.6,4.506,0.053,16.74,106.0555,14.77,15.75,73.77,0,110.4,13.36,15.58,95.6
"2009-08-31 01:21:00",1198531,0.699,137.4,2.774,0.054,16.79,106.0555,14.77,15.77,73.81,0,110.4,13.36,15.58,99.4
"2009-08-31 01:21:30",1198532,0.736,156.1,6.011,0.074,16.84,106.0555,14.77,15.75,73.83,0,110.4,13.36,15.58,118.1
"2009-08-31 01:22:00",1198533,0.868,165.4,4.538,0.063,16.69,106.0555,14.77,15.78,73.81,0,110.4,13.36,15.58,127.4
"2009-08-31 01:22:30",1198534,0.897,172.3,3.118,0.047,16.74,106.0555,14.77,15.79,73.75,0,110.4,13.35,15.58,134.3
"2009-08-31 01:23:00",1198535,1.112,167.6,2.678,0.076,16.67,106.0555,14.77,15.79,73.71,0,110.4,13.35,15.58,129.6
"2009-08-31 01:23:30",1198536,1.314,162.3,1.493,0.086,16.89,106.0574,14.78,15.8,73.7,0,110.4,13.35,15.58,124.3
"2009-08-31 01:24:00",1198537,1.379,172.4,6.277,0.188,16.87,106.0636,14.8,15.8,73.67,0,110.4,13.35,15.60,134.4
"2009-08-31 01:24:30",1198538,1.683,169,4.184,0.109,16.87,106.0741,14.82,15.79,73.52,0,110.4,13.35,15.63,131.0
"2009-08-31 01:25:00",1198539,1.84,164.9,0.974,0.127,16.89,106.0803,14.84,15.82,73.41,0,110.4,13.35,15.64,126.9
"2009-08-31 01:25:30",1198540,2.199,167.4,1.694,0.076,16.9,106.0811,14.84,15.82,73.4,0,110.4,13.35,15.64,129.4
"2009-08-31 01:26:00",1198541,2.495,169.4,9.99,0.206,16.94,106.0842,14.85,15.82,73.3,0,110.4,13.35,15.65,131.4
"2009-08-31 01:26:30",1198542,2.151,183.8,3.883,0.307,17.03,106.0856,14.85,15.82,73.06,0,110.4,13.35,15.66,145.8
"2009-08-31 01:27:00",1198543,2.008,173.9,10.91,0.336,16.98,106.0887,14.86,15.84,72.81,0,110.4,13.35,15.66,135.9
"2009-08-31 01:27:30",1198544,2.164,155.7,2.415,0.062,16.9,106.0893,14.86,15.85,72.71,0,110.4,13.36,15.67,117.7
"2009-08-31 01:28:00",1198545,2.413,156.8,4.328,0.093,16.95,106.0893,14.86,15.84,72.73,0,110.4,13.36,15.67,118.8
"2009-08-31 01:28:30",1198546,2.319,153.8,5.099,0.165,16.92,106.0893,14.86,15.85,72.69,0,110.4,13.36,15.67,115.8
"2009-08-31 01:29:00",1198547,2.364,149.1,1.636,0.074,17,106.0893,14.86,15.85,72.6,0,110.4,13.36,15.67,111.1
"2009-08-31 01:29:30",1198548,2.394,149.6,5.017,0.102,17.05,106.0893,14.86,15.86,72.52,0,110.4,13.36,15.67,111.6
"2009-08-31 01:30:00",1198549,2.508,144.2,1,0.047,16.99,106.0893,14.86,15.87,72.44,0,110.4,13.36,15.67,106.2
"2009-08-31 01:30:30",1198550,2.543,143.6,1.052,0.035,17.1,106.0896,14.86,15.88,72.41,0,110.4,13.36,15.67,105.6
"2009-08-31 01:31:00",1198551,2.584,141.3,1.511,0.072,17.17,106.0893,14.86,15.88,72.26,0,110.4,13.36,15.67,103.3
"2009-08-31 01:31:30",1198552,2.701,138.1,0.727,0.043,17.07,106.0935,14.87,15.87,72.13,0,110.4,13.36,15.68,100.1
"2009-08-31 01:32:00",1198553,2.809,140.4,1.05,0.035,16.95,106.1107,14.92,15.89,72.12,0,110.4,13.36,15.72,102.4
"2009-08-31 01:32:30",1198554,2.884,142.7,1.119,0.065,16.86,106.1164,14.93,15.91,72.1,0,110.4,13.36,15.74,104.7
"2009-08-31 01:33:00",1198555,3.099,140.2,1.288,0.056,16.85,106.1231,14.95,15.92,72.05,0,110.4,13.36,15.75,102.2
"2009-08-31 01:33:30",1198556,3.071,140,0.641,0.036,16.82,106.1231,14.95,15.91,71.99,0,110.4,13.36,15.75,102.0
"2009-08-31 01:34:00",1198557,3.163,143.8,2.31,0.075,16.91,106.1231,14.95,15.92,72.01,0,110.4,13.36,15.75,105.8
"2009-08-31 01:34:30",1198558,3.348,144.1,1.575,0.047,16.89,106.1231,14.95,15.94,71.99,0,110.4,13.36,15.75,106.1
"2009-08-31 01:35:00",1198559,3.415,141.2,1.009,0.048,16.93,106.124,14.95,15.94,71.98,0,110.4,13.36,15.75,103.2
"2009-08-31 01:35:30",1198560,3.477,143.7,1.28,0.04,16.87,106.1313,14.97,15.95,72,0,110.4,13.36,15.77,105.7
"2009-08-31 01:36:00",1198561,3.481,148.4,0.886,0.069,16.87,106.1395,14.99,15.97,72.02,0,110.4,13.36,15.79,110.4
"2009-08-31 01:36:30",1198562,3.507,147.4,0.678,0.056,16.86,106.1482,15.01,15.96,71.99,0,110.5,13.36,15.82,109.4
"2009-08-31 01:37:00",1198563,3.248,149.8,1.28,0.098,16.9,106.1539,15.03,16,71.93,0,110.4,13.36,15.83,111.8
"2009-08-31 01:37:30",1198564,3.21,148.8,1.392,0.103,16.98,106.1567,15.03,16,71.85,0,110.4,13.36,15.84,110.8
"2009-08-31 01:38:00",1198565,3.391,148.9,2.893,0.237,16.92,106.157,15.03,15.99,71.75,0,110.4,13.36,15.84,110.9
"2009-08-31 01:38:30",1198566,3.196,147.3,2.783,0.131,16.99,106.157,15.03,16,71.65,0,110.4,13.36,15.84,109.3
"2009-08-31 01:39:00",1198567,3.248,148.6,3.335,0.081,16.92,106.157,15.03,16.02,71.59,0,110.4,13.36,15.84,110.6
"2009-08-31 01:39:30",1198568,3.239,150.9,1.342,0.177,16.99,106.157,15.03,16.03,71.53,0,110.4,13.36,15.84,112.9
"2009-08-31 01:40:00",1198569,3.342,154.8,1.754,0.117,16.96,106.1595,15.04,16.03,71.52,0,110.4,13.35,15.85,116.8
"2009-08-31 01:40:30",1198570,3.379,154.1,2.579,0.121,17.04,106.1722,15.07,16.04,71.46,0,110.4,13.35,15.88,116.1
"2009-08-31 01:41:00",1198571,3.356,152.2,2.834,0.121,16.98,106.1809,15.1,16.05,71.32,0,110.4,13.35,15.90,114.2
"2009-08-31 01:41:30",1198572,3.415,150.6,0.987,0.153,17,106.1866,15.11,16.06,71.16,0,110.4,13.35,15.92,112.6
"2009-08-31 01:42:00",1198573,3.52,149.4,1.458,0.103,17.06,106.1905,15.12,16.06,70.98,0,110.5,13.35,15.93,111.4
"2009-08-31 01:42:30",1198574,3.296,155.9,2.041,0.116,16.93,106.1908,15.12,16.08,70.86,0,110.4,13.35,15.93,117.9
"2009-08-31 01:43:00",1198575,3.124,159.9,2.56,0.095,16.94,106.1908,15.12,16.08,70.86,0,110.4,13.35,15.93,121.9
"2009-08-31 01:43:30",1198576,2.865,160,3.181,0.128,17.08,106.1908,15.12,16.1,70.84,0,110.4,13.35,15.93,122.0
"2009-08-31 01:44:00",1198577,3.018,155.9,1.049,0.12,17.06,106.1911,15.12,16.1,70.81,0,110.4,13.36,15.93,117.9
"2009-08-31 01:44:30",1198578,2.923,161,2.702,0.202,17.02,106.1981,15.14,16.11,70.61,0,110.4,13.36,15.95,123.0
"2009-08-31 01:45:00",1198579,3.103,157.9,3.953,0.115,16.97,106.2102,15.17,16.12,70.57,0,110.4,13.36,15.98,119.9
"2009-08-31 01:45:30",1198580,3.056,160,2.754,0.093,17.03,106.2142,15.18,16.14,70.61,0,110.4,13.36,15.99,122.0
"2009-08-31 01:46:00",1198581,3.074,165.4,3.691,0.08,17.07,106.2196,15.2,16.14,70.61,0,110.4,13.36,16.00,127.4
"2009-08-31 01:46:30",1198582,3.056,164.6,2.103,0.149,17.11,106.2243,15.21,16.15,70.73,0,110.5,13.36,16.01,126.6
"2009-08-31 01:47:00",1198583,3.142,166.2,1.959,0.067,16.94,106.2246,15.21,16.15,70.71,0,110.4,13.36,16.01,128.2